[[{"header":{"parameterUnit":"m.s-1","parameterCategory":1,"la1":30.2991,"la2":30.254,"lo1":-89.0895,"lo2":-89.0444,"dy":0.0017,"dx":0.0017,"nx":28,"ny":28,"refTime":"2024-07-09T21:00:00:Z","depth":0,"parameterNumber":2,"parameterNumberName":"U-component_of_WINDS"},"data":[0,0,0,0,0,0,0,0,0,0,0,0,0,0,0,0,0,0,0,0,0,0,0,0,0,0,0,0,0,0,0,0,0,0,0,0,0,0,0,0,0,0,0,0,0,0,0,0,0,0,0,0,0,0,0,0,0,0,3.6765,3.6766,0,3.6855,3.6856,3.6857,3.6783,3.678,3.6777,3.6774,3.6866,3.6871,3.6877,0,0,0,0,0,0,0,0,0,0,0,0,0,3.6525,3.6529,3.6765,3.6766,3.6767,3.6855,3.6856,3.6858,3.6784,3.678,3.6776,3.6773,3.6864,3.6871,3.6877,0,0,0,0,0,0,0,0,0,0,0,0,0,3.6623,3.6531,3.6764,3.6741,3.6739,3.6855,3.6856,3.6858,3.6785,3.678,3.6775,3.6771,3.6862,3.687,3.6878,3.7022,0,0,3.6903,3.6906,0,0,0,0,0,0,0,0,3.6618,3.6632,3.6743,3.6742,3.6741,3.6803,3.6805,3.6913,3.6786,3.6767,3.6774,3.6768,3.6849,3.6858,3.6885,3.7026,3.703,3.6903,3.6908,3.6912,3.6914,0,0,0,0,0,0,0,3.6611,3.6628,3.68,3.6745,3.6744,3.6724,3.6733,3.6826,3.6833,3.6769,3.6763,3.6775,3.6848,3.6878,3.6887,3.7031,3.6903,3.691,3.6915,3.6918,3.7291,3.7295,0,0,0,0,0,0,3.6607,3.6623,3.6798,3.6803,3.6667,3.6733,3.6743,3.6788,3.6832,3.6834,3.6779,3.6771,3.6866,3.6877,3.689,3.7058,3.6912,3.6919,3.6924,3.7286,3.7292,3.7297,0,0,0,0,0,0,3.6602,3.6623,3.6794,3.6712,3.6732,3.6742,3.6793,3.6792,3.6822,3.684,3.6841,3.6808,3.6863,3.6878,3.6989,3.706,3.6923,3.693,3.728,3.7287,3.7294,3.7397,0,0,0,0,0,0,3.6596,3.6622,3.6677,3.6713,3.6737,3.6892,3.6798,3.6797,3.6836,3.6827,3.6868,3.687,3.686,3.6977,3.6997,3.7069,3.6936,3.7273,3.7283,3.7292,3.7387,3.7407,3.7424,0,0,0,0,0,3.6587,3.6703,3.6681,3.6702,3.6806,3.6897,3.691,3.6897,3.6842,3.6897,3.6908,3.6869,3.705,3.6989,3.701,3.7086,3.7269,3.728,3.7291,3.7379,3.7403,3.7424,0,0,0,0,0,0,3.6676,3.6708,3.6683,3.6814,3.6853,3.6884,3.6953,3.6923,3.6978,3.6967,3.6948,3.6958,3.7073,3.7091,3.7023,3.7225,3.715,3.7166,3.7209,3.7233,3.7251,3.7243,3.6943,0,0,0,0,0,3.6711,3.6782,3.6806,3.692,3.694,3.6944,3.6983,3.6969,3.7008,3.7024,3.7044,3.7083,3.7148,3.7192,3.7253,3.739,3.7396,3.7452,3.7471,3.7486,3.7499,3.757,3.7594,3.7334,3.7334,3.7334,0,0,3.6783,3.681,3.6856,3.6938,3.6967,3.7039,3.6958,3.704,3.7093,3.7037,3.7141,3.7157,3.7199,3.7323,3.7378,3.7341,3.7572,3.75,3.7512,3.7518,3.7584,3.7608,3.763,3.7342,3.7341,3.734,0,0,3.6952,3.6981,3.7077,3.7107,3.7151,3.7152,3.7175,3.721,3.7218,3.7323,3.7281,3.7344,3.7458,3.7489,3.7519,3.7698,3.7662,3.7719,3.7814,3.7883,3.7904,3.7922,3.7982,3.8005,3.7733,3.7733,3.7733,0,3.7037,3.7146,3.713,3.7214,3.725,3.7202,3.7298,3.7328,3.739,3.7415,3.7373,3.7512,3.7538,3.7666,3.7709,3.7737,3.7761,3.7713,3.7902,3.792,3.7936,3.7994,3.8017,3.7739,3.7738,3.7738,3.7737,0,3.7246,3.7323,3.7395,3.7455,3.7499,3.7589,3.7585,3.7632,3.7614,3.7619,3.7724,3.7753,3.7818,3.7848,3.7832,3.7973,3.7948,3.7905,3.7828,3.7968,3.8021,3.8044,3.7748,3.7746,3.7744,3.7743,0,0,3.7474,3.7523,3.7549,3.7574,3.7619,3.7677,3.7763,3.7826,3.7865,3.7909,3.798,3.8076,3.8035,3.807,3.8057,3.8117,3.8253,3.8066,3.8066,3.8097,3.8407,3.8438,3.8464,3.823,3.8235,3.8238,3.8402,0,3.7643,3.7793,3.778,3.7922,3.799,3.7945,3.802,3.8054,3.8061,3.8119,3.8127,3.8194,3.8136,3.8156,3.8215,3.8224,3.8315,3.8213,3.8294,3.8297,3.8282,3.8492,3.8526,3.868,3.8424,3.8427,3.843,0,3.786,3.791,3.8059,3.809,3.8118,3.8186,3.8241,3.8298,3.8335,3.8335,3.8373,3.8349,3.8434,3.8357,3.8473,3.8404,3.8436,3.8446,3.8451,3.8457,3.837,3.8501,3.8729,3.8751,3.8463,3.8461,3.8458,0,3.8007,3.8113,3.8214,3.8238,3.8277,3.8325,3.8344,3.8377,3.8414,3.8463,3.8486,3.8544,3.8575,3.862,3.8611,3.8557,3.8728,3.8651,3.8729,3.8729,3.8766,3.8763,3.9,3.8791,3.8791,3.879,3.879,0,3.8196,3.8288,3.828,3.8343,3.8444,3.8427,3.8527,3.854,3.8569,3.8632,3.8597,3.8656,3.8642,3.8701,3.8695,3.8789,3.8805,3.8806,3.8802,3.8808,3.8807,3.8827,3.8815,3.8797,3.8795,3.8794,3.8793,0,3.8377,3.8377,3.8484,3.8512,3.8521,3.8593,3.8617,3.8675,3.8678,3.8757,3.8775,3.878,3.8847,3.8843,3.8919,3.8915,3.9031,3.9017,3.9018,3.9014,3.9091,3.9083,3.9346,3.9379,3.9152,3.9154,3.9156,0,3.8497,3.8566,3.8601,3.864,3.8662,3.8726,3.8764,3.875,3.879,3.8837,3.8888,3.8952,3.9002,3.9111,3.912,3.9178,3.9163,3.9251,3.9171,3.9173,3.916,3.9155,3.9161,3.9266,3.9269,3.9271,3.9273,0,3.8707,3.8703,3.8759,3.8814,3.886,3.8903,3.8943,3.8977,3.8967,3.9014,3.9081,3.912,3.9196,3.9259,3.9313,3.9331,3.93,3.9298,3.9318,3.9323,3.932,3.9319,3.9058,3.9291,3.929,3.9288,3.9287,3.9286,3.8859,3.8918,3.895,3.9013,3.9041,3.9078,3.9133,3.9142,3.9198,3.9259,3.9247,3.9323,3.9355,3.9425,3.9448,3.9505,3.9473,3.9504,3.9511,3.9518,3.9525,3.9312,3.9515,3.9515,3.9514,3.9514,3.9513,0,3.9066,3.9084,3.9142,3.9197,3.9246,3.9213,3.9254,3.9296,3.9363,3.9396,3.9445,3.9521,3.9581,3.9596,3.9653,3.9696,3.9683,3.9711,3.9706,3.971,3.9552,3.9527,3.972,3.972,3.972,3.972,3.972,3.972,3.9179,3.9274,3.9273,3.9382,3.9399,3.9472,3.9498,3.9531,3.9557,3.9643,3.9693,3.9702,3.9726,3.9785,3.9837,3.984,3.9861,3.9895,3.9891,3.9743,3.9722,3.9702,3.9678,3.99,3.9901,4.0044,4.0046,4.0047]},{"header":{"parameterUnit":"m.s-1","parameterCategory":1,"la1":30.2991,"la2":30.254,"lo1":-89.0895,"lo2":-89.0444,"dy":0.0017,"dx":0.0017,"nx":28,"ny":28,"refTime":"2024-07-09T21:00:00:Z","depth":0,"parameterNumber":3,"parameterNumberName":"V-component_of_WINDS"},"data":[0,0,0,0,0,0,0,0,0,0,0,0,0,0,0,0,0,0,0,0,0,0,0,0,0,0,0,0,0,0,0,0,0,0,0,0,0,0,0,0,0,0,0,0,0,0,0,0,0,0,0,0,0,0,0,0,0,0,0.7373,0.7374,0,0.7435,0.7436,0.7437,0.7416,0.7415,0.7414,0.7412,0.7478,0.7481,0.7484,0,0,0,0,0,0,0,0,0,0,0,0,0,0.7239,0.7241,0.7373,0.7374,0.7375,0.7435,0.7436,0.7437,0.7416,0.7415,0.7413,0.7412,0.7477,0.7481,0.7485,0,0,0,0,0,0,0,0,0,0,0,0,0,0.7299,0.7242,0.7373,0.7372,0.7372,0.7435,0.7436,0.7437,0.7417,0.7415,0.7413,0.7411,0.7476,0.7481,0.7485,0.7553,0,0,0.7499,0.7501,0,0,0,0,0,0,0,0,0.7295,0.7304,0.7371,0.7372,0.7373,0.7416,0.7413,0.7476,0.7417,0.74,0.7412,0.741,0.7459,0.7465,0.7481,0.7557,0.7559,0.7499,0.7502,0.7504,0.7505,0,0,0,0,0,0,0,0.7291,0.7301,0.7398,0.7372,0.7373,0.7369,0.7375,0.7425,0.744,0.7401,0.74,0.7407,0.7459,0.7477,0.7483,0.756,0.7499,0.7503,0.7506,0.7508,0.7693,0.7695,0,0,0,0,0,0,0.7286,0.7297,0.7396,0.74,0.7328,0.7373,0.738,0.7404,0.744,0.7443,0.7409,0.7406,0.747,0.7477,0.7485,0.7567,0.7504,0.7508,0.7511,0.7691,0.7693,0.7696,0,0,0,0,0,0,0.7283,0.7295,0.7394,0.7348,0.736,0.7377,0.7405,0.7406,0.7424,0.7446,0.7448,0.7424,0.7469,0.7479,0.7536,0.7569,0.751,0.7514,0.7688,0.7692,0.7695,0.7731,0,0,0,0,0,0,0.728,0.7294,0.7321,0.7349,0.7363,0.7443,0.7407,0.7409,0.7432,0.7428,0.746,0.7464,0.7468,0.7529,0.754,0.7574,0.7518,0.7685,0.769,0.7694,0.7727,0.7735,0.7742,0,0,0,0,0,0.7275,0.7329,0.7322,0.7334,0.7396,0.7445,0.7453,0.7456,0.7434,0.7461,0.7474,0.7463,0.7563,0.7535,0.7548,0.7583,0.7683,0.7688,0.7693,0.7723,0.7733,0.7742,0,0,0,0,0,0,0.7306,0.7333,0.7325,0.739,0.7415,0.7442,0.7475,0.7467,0.75,0.7496,0.7499,0.7506,0.7565,0.7579,0.7548,0.765,0.762,0.7628,0.7639,0.7648,0.7656,0.7651,0.7522,0,0,0,0,0,0.732,0.7357,0.7379,0.7434,0.7447,0.7459,0.7481,0.7481,0.7507,0.7518,0.7536,0.7563,0.76,0.7625,0.766,0.7728,0.7735,0.7758,0.7766,0.7772,0.7779,0.7815,0.7825,0.7712,0.7712,0.7712,0,0,0.735,0.7369,0.7393,0.7441,0.7461,0.7499,0.7468,0.7511,0.754,0.7525,0.758,0.7594,0.7624,0.7686,0.7715,0.77,0.7811,0.7778,0.7783,0.7787,0.7821,0.7832,0.7841,0.7716,0.7715,0.7714,0,0,0.7425,0.7443,0.7491,0.751,0.7539,0.7546,0.7558,0.7585,0.7593,0.7648,0.7637,0.7671,0.7735,0.7757,0.7776,0.7856,0.7847,0.7867,0.7907,0.7942,0.7951,0.7959,0.7987,0.7997,0.7874,0.7874,0.7874,0,0.7459,0.7516,0.7516,0.7559,0.7581,0.7567,0.7615,0.7634,0.7674,0.7689,0.7671,0.775,0.777,0.7837,0.7856,0.7872,0.7885,0.7865,0.795,0.7958,0.7965,0.7992,0.8003,0.7876,0.7876,0.7876,0.7876,0,0.7556,0.7596,0.7631,0.7668,0.7693,0.7739,0.7745,0.7771,0.7767,0.7776,0.7831,0.7854,0.7893,0.7908,0.7907,0.7975,0.7965,0.7949,0.7919,0.7978,0.8004,0.8014,0.788,0.7879,0.7878,0.7878,0,0,0.7655,0.7689,0.7702,0.7718,0.7748,0.7779,0.7823,0.786,0.7881,0.7908,0.7946,0.7999,0.7984,0.8006,0.8006,0.8036,0.8097,0.8016,0.8017,0.8031,0.8173,0.8185,0.8197,0.809,0.8092,0.8094,0.817,0,0.7732,0.7808,0.7809,0.788,0.7916,0.7902,0.794,0.7963,0.7972,0.8004,0.8014,0.8052,0.8029,0.8042,0.8071,0.8084,0.8126,0.8078,0.8125,0.8127,0.8119,0.821,0.8224,0.8295,0.818,0.8182,0.8183,0,0.7832,0.7861,0.7935,0.7958,0.7974,0.8008,0.8041,0.8072,0.8097,0.8101,0.8124,0.8119,0.8164,0.8131,0.8192,0.816,0.8179,0.8187,0.819,0.8196,0.8159,0.8218,0.8317,0.8328,0.8199,0.8197,0.8196,0,0.7896,0.7953,0.8005,0.8019,0.8047,0.8071,0.8084,0.8107,0.8129,0.8157,0.8171,0.8205,0.8224,0.8251,0.8255,0.823,0.8316,0.8284,0.8321,0.8321,0.8341,0.834,0.8445,0.8352,0.8352,0.8352,0.8352,0,0.7982,0.8029,0.8033,0.8065,0.8116,0.8115,0.8166,0.8177,0.8196,0.823,0.822,0.8252,0.8255,0.8288,0.8291,0.8341,0.835,0.8354,0.8355,0.8356,0.8355,0.8369,0.8364,0.8355,0.8354,0.8354,0.8353,0,0.8063,0.8068,0.8123,0.8144,0.8151,0.8187,0.8205,0.8236,0.8242,0.8285,0.8295,0.8306,0.8344,0.8349,0.8394,0.8396,0.8456,0.8452,0.8448,0.8447,0.8484,0.848,0.8602,0.8618,0.8515,0.8516,0.8517,0,0.8118,0.8153,0.8177,0.8198,0.8212,0.8246,0.8268,0.8268,0.829,0.832,0.8347,0.8383,0.8412,0.8473,0.8485,0.8519,0.8515,0.8555,0.852,0.8519,0.8516,0.8514,0.8517,0.8563,0.8564,0.8565,0.8565,0,0.8215,0.8215,0.8246,0.8277,0.8303,0.8328,0.8351,0.8369,0.8372,0.8398,0.8436,0.8458,0.8502,0.8539,0.8572,0.8585,0.8576,0.8576,0.8586,0.8588,0.8584,0.8586,0.8467,0.8573,0.8573,0.8572,0.8572,0.8571,0.8285,0.8314,0.8335,0.837,0.8387,0.8408,0.8437,0.8447,0.8478,0.8513,0.8511,0.8553,0.8575,0.8618,0.8634,0.8666,0.8653,0.8668,0.8672,0.8676,0.8679,0.8578,0.8672,0.8672,0.8672,0.8671,0.8671,0,0.8381,0.8393,0.8425,0.8457,0.8483,0.847,0.8495,0.8518,0.8555,0.8576,0.8604,0.8646,0.8681,0.8695,0.8728,0.8752,0.8748,0.876,0.8759,0.8762,0.8689,0.8677,0.8763,0.8763,0.8763,0.8763,0.8763,0.8763,0.8434,0.8484,0.8486,0.8543,0.8555,0.8595,0.861,0.8629,0.8646,0.8694,0.8722,0.873,0.8748,0.8783,0.8813,0.8816,0.8829,0.8844,0.8845,0.8777,0.8768,0.8759,0.8747,0.8847,0.8847,0.8916,0.8916,0.8917]}]]